TimeCST,TemperatureF,Dew PointF,Humidity,Sea Level PressureIn,VisibilityMPH,Wind Direction,Wind SpeedMPH,Gust SpeedMPH,PrecipitationIn,Events,Conditions,WindDirDegrees,DateUTC
12:52 AM,25.0,21.0,85,30.11,10.0,Calm,Calm,-,N/A,,Clear,0,2013-02-06 06:52:00
1:52 AM,25.0,21.0,85,30.11,10.0,Calm,Calm,-,N/A,,Clear,0,2013-02-06 07:52:00
2:52 AM,24.1,19.9,84,30.11,10.0,Calm,Calm,-,N/A,,Clear,0,2013-02-06 08:52:00
3:52 AM,24.1,21.0,88,30.11,10.0,East,3.5,-,N/A,,Clear,90,2013-02-06 09:52:00
4:52 AM,25.0,21.0,85,30.11,10.0,South,4.6,-,N/A,,Clear,170,2013-02-06 10:52:00
5:52 AM,27.0,21.9,81,30.09,10.0,East,5.8,-,N/A,,Clear,80,2013-02-06 11:52:00
7:52 AM,27.0,23.0,85,30.11,7.0,ESE,3.5,-,N/A,,Clear,110,2013-02-06 13:52:00
8:52 AM,39.9,32.0,73,30.10,-9999.0,SE,6.9,-,N/A,,Clear,140,2013-02-06 14:52:00
9:52 AM,48.9,30.9,50,30.08,10.0,SSE,13.8,-,N/A,,Clear,150,2013-02-06 15:52:00
10:52 AM,54.0,30.9,41,30.06,10.0,SSE,16.1,26.5,N/A,,Clear,150,2013-02-06 16:52:00
11:52 AM,57.9,32.0,37,30.03,10.0,SSE,16.1,-,N/A,,Clear,160,2013-02-06 17:52:00
12:52 PM,61.0,34.0,36,29.99,10.0,South,10.4,18.4,N/A,,Scattered Clouds,170,2013-02-06 18:52:00
1:52 PM,64.0,36.0,35,29.94,10.0,South,15.0,24.2,N/A,,Clear,180,2013-02-06 19:52:00
2:52 PM,62.1,39.0,43,29.92,10.0,SSE,13.8,-,N/A,,Overcast,160,2013-02-06 20:52:00
3:52 PM,63.0,42.1,46,29.90,9.0,SSE,11.5,-,N/A,,Mostly Cloudy,160,2013-02-06 21:52:00
4:52 PM,62.1,42.1,48,29.88,10.0,SE,8.1,-,N/A,,Scattered Clouds,140,2013-02-06 22:52:00
5:52 PM,57.9,42.1,56,29.88,10.0,SE,10.4,-,N/A,,Mostly Cloudy,130,2013-02-06 23:52:00
6:52 PM,55.9,41.0,57,29.88,10.0,SE,11.5,-,N/A,,Mostly Cloudy,140,2013-02-07 00:52:00
7:52 PM,54.0,39.9,59,29.88,10.0,SE,10.4,-,N/A,,Partly Cloudy,130,2013-02-07 01:52:00
8:52 PM,53.1,39.0,59,29.89,10.0,SE,8.1,-,N/A,,Overcast,130,2013-02-07 02:52:00
9:52 PM,53.1,39.0,59,29.89,10.0,SE,8.1,-,N/A,,Overcast,140,2013-02-07 03:52:00
10:52 PM,52.0,39.0,61,29.91,10.0,ESE,5.8,-,N/A,,Overcast,120,2013-02-07 04:52:00
11:52 PM,54.0,39.9,59,29.91,10.0,SSE,9.2,-,N/A,,Overcast,160,2013-02-07 05:52:00